AirNav   Air Wisconsin Up To $57,000 Bonus
 
 1114 users online  

XS77 Seafood Warehouse Park Airport
Crystal Beach, Texas, USA

GOING TO CRYSTAL BEACH?


FAA INFORMATION EFFECTIVE 02 DECEMBER 2021

Location

FAA Identifier: XS77
Lat/Long: 29-27-55.8360N 094-37-38.6950W
29-27.930600N 094-37.644917W
29.4655100,-94.6274153
(estimated)
Elevation: 9 ft. / 3 m (estimated)
Variation: 06E (1985)
From city: 1 mile N of CRYSTAL BEACH, TX
Time zone: UTC -6 (UTC -5 during Daylight Saving Time)
Zip code: 77650

Airport Operations

Airport use: Private use. Permission required prior to landing
Activation date: 06/1991
Control tower: no
ARTCC: HOUSTON CENTER
FSS: MONTGOMERY COUNTY FLIGHT SERVICE STATION
Attendance: UNATNDD
Wind indicator: yes
Segmented circle: no

Airport Communications

WX ASOS at GLS (17 nm SW): 119.275 (409-740-9248)

Nearby radio navigation aids

VOR radial/distance  VOR name  Freq  Var
MHFr121/7.9TRINITY VOR/DME113.6007E
VUHr041/17.2SCHOLES VOR/DME113.0006E
SBIr240/33.5SABINE PASS VOR/DME115.4007E

Airport Services

Fuel available: 100LL

Runway Information

Runway 12/30

Dimensions: 2200 x 75 ft. / 671 x 23 m
Surface: turf
RUNWAY 12  RUNWAY 30
Traffic pattern: leftleft

Airport Ownership and Management from official FAA records

Ownership: Privately-owned
Owner: PATRICK A. ROGERS
PO BOX 2160
CRYSTAL BEACH, TX 77650
Phone 409-684-3553
Manager: PATRICK A. ROGERS
PO BOX 2160
CRYSTAL BEACH, TX 77650
Phone 409-684-3553

Airport Operational Statistics

Aircraft based on the field: 6
Single engine airplanes: 4
Multi engine airplanes: 2
    

Additional Remarks

FOR CD CTC HOUSTON ARTCC AT 281-230-5622.

Instrument Procedures

There are no published instrument procedures at XS77.

Some nearby airports with instrument procedures:

KGLS - Scholes International Airport at Galveston (17 nm SW)
T00 - Chambers County Airport (18 nm N)
54T - RWJ Airpark (21 nm NW)
KHPY - Baytown Airport (26 nm NW)
T41 - La Porte Municipal Airport (26 nm NW)
 
Loc | Ops | Rwys | IFR | FBO | Links
Com | Nav | Svcs | Stats | Notes
Area around XS77 (Seafood Warehouse Park Airport)
 
Road maps at: MapQuest Bing Google
 
Aerial photo
No photo
 
Sectional chart

 
Airport distance calculator
Flying to Seafood Warehouse Park Airport? Find the distance to fly.

From to XS77

Sunrise and sunset
Times for 06-Dec-2021
 Local
(UTC-6)
 Zulu
(UTC)
Morning civil twilight06:3512:35
Sunrise07:0113:01
Sunset17:1923:19
Evening civil twilight17:4523:45

Current date and time
Zulu (UTC)  07-Dec-2021 01:17:39
Local (UTC-6)  06-Dec-2021 19:17:39
 
METAR
KGLS 
17nm SW 
070052Z AUTO 36019G29KT 10SM SCT019 BKN045 OVC055 19/14 A3007 RMK AO2 PK WND 35031/0042 SLP183 T01890144
KT41 
26nm NW 
070055Z AUTO 36011KT 10SM OVC039 17/12 A3010 RMK AO2 T01700121
KEFD 
29nm W 
070050Z 35014G20KT 10SM OVC040 17/12 A3008
KLVJ 
33nm W 
070053Z AUTO 01010KT 10SM OVC039 18/12 A3010 RMK AO2 SLP191 T01780117
TAF
KGLS 
17nm SW 
062039Z 0621/0718 24006KT P6SM FEW025 SCT100 OVC200 TEMPO 0621/0622 VRB15G26KT -SHRA BKN025 OVC200 FM062200 35013G23KT P6SM BKN019 OVC200 FM070000 35018G29KT P6SM OVC018 FM070600 01015G24KT P6SM OVC022 FM071200 02011KT P6SM OVC027
NOTAMs
Click for the latest NOTAMs
NOTAMs are issued by the DoD/FAA and will open in a separate window not controlled by AirNav.

 

 
 

Would you like to see your business listed on this page?

 If your business provides an interesting product or service to pilots, flight crews, aircraft, or users of the Seafood Warehouse Park Airport, you should consider listing it here.  To start the listing process, click on the button below
 
Add a business
 

Other Pages about Seafood Warehouse Park Airport

Update a link
 
Copyright © AirNav, LLC. All rights reserved. Privacy Policy  Contact